Regional Weather Roundup
Issued by NWS Charleston, SC

Current Version | Previous Version | Text Only | Print | Product List | Glossary On
Versions: 1 2 3 4 5 6 7 8 9 10 11 12 13 14 15 16 17 18 19 20 21 22 23 24 25 26 27 28 29 30 31 32 33 34 35 36 37 38 39 40 41 42 43 44 45 46 47 48 49 50
500
ASUS42 KCHS 241627
RWRCHS

Regional Weather Roundup
National Weather Service Charleston SC
1200 PM EDT TUE APR 24 2018

NOTE: "fair" indicates few or no clouds below 12,000 feet with no
significant weather and/or obstructions to visibility.

Not all stations are quality controlled. Use data with caution,
especially dewpoint observations.

SCZ027-030-031-034>040-042>050-241700-
...Southeast South Carolina...

CITY           SKY/WX    TMP DP  RH WIND       PRES   REMARKS
N Charleston   FAIR      76  57  51 SW9G16    29.87F
Waterfront Prk   N/A     69  64  84 S10       29.73F
Mount Pleasant FAIR      73  64  73 S12       29.87F
Johns Island   FAIR      72  63  73 S12       29.88F
Pinopolis      NOT AVBL
Moncks Corner  FAIR      73  57  56 S12G18    29.86F
Summerville    FAIR      73  59  60 SW8       29.87F
Beaufort MCAS  FAIR      74  62  66 SW10      29.88F
Beaufort Arpt  FAIR      73  59  60 SW7       29.88F
Hilton Head Is MOSUNNY   72  59  64 SW9       29.90F
Walterboro     FAIR      73  59  60 SW8G17    29.88S
Allendale      FAIR      72  59  64 VRB6G12   29.86F

...Southern Midlands and Pee Dee...

CITY           SKY/WX    TMP DP  RH WIND       PRES   REMARKS
Georgetown     PTSUNNY   73  64  73 S12       29.88F
Kingstree      PTSUNNY   73  61  64 S8        29.85F
Orangeburg     PTSUNNY   72  61  68 S10       29.86F
Barnwell       PTSUNNY   72  61  68 SW9       29.86F
Aiken          PTSUNNY   68  61  77 SW8       29.89F
Manning        PTSUNNY   70  59  68 SW8       29.85F
Columbia       FAIR      76  62  62 S13       29.82F
Sumter         PTSUNNY   73  63  69 S7        29.83F
Florence       PTSUNNY   73  66  78 S9        29.86F
Myrtle Beach   PTSUNNY   71  67  87 S12       29.90F
N Myrtle Beach PTSUNNY   68  65  90 SE10      29.89F

$$

GAZ063-065-086>088-099>101-113>116-118-119-134>141-150-241700-
...Southeast Georgia...

CITY           SKY/WX    TMP DP  RH WIND       PRES   REMARKS
Savannah Arpt  PTSUNNY   72  57  59 VRB5      29.89F
Hunter AAF     FAIR      74  60  60 W9G17     29.87
Fort Stewart   FAIR      74  55  50 SW14G20   29.88
Statesboro     FAIR      73  51  45 W9G16     29.88F
Sylvania       FAIR      73  61  64 W7        29.88F
Claxton        FAIR      73  55  52 S5G16     29.89F

...CSRA, Central and far Southeast Georgia...

CITY           SKY/WX    TMP DP  RH WIND       PRES   REMARKS
Thomson        CLOUDY    69  59  68 N8        29.90S
Augusta-Bush   PTSUNNY   72  62  71 SW5       29.85F
Augusta-Daniel PTSUNNY   72  60  66 S9        29.86F
Swainsboro     PTSUNNY   70  59  68 W12G22    29.89F
Vidalia        PTSUNNY   70  59  68 SW8       29.90F
Eastman        PTSUNNY   73  47  39 W14       29.92F
Hazlehurst     FAIR      74  52  47 W6        29.90F
Alma           FAIR      73  54  51 W9        29.92F
Waycross       FAIR      73  49  42 W14       29.92F
Jesup          PTSUNNY   73  54  49 W12       29.91F
Baxley         FAIR      70  54  56 SW12      29.91F
Brunswick      FAIR      73  54  49 SW14G22   29.92F
Saint Simons   FAIR      73  57  57 SW13      29.92F

$$

SCZ027-028-034-036>038-045-046-048>050-GAZ119-141-241700-
...Lake and Supplemental Coastal Observations...

STATION/POSITION TIME  TEMP    WIND        PRES    WAVE   SWELL
                       AIR SEA DIR/SP/G            HT/PER HT/PER/DIR
                 (UTC) (F)     (DEG/KT/KT) (MB)    (FT/S) (FT/S/D)
Winyah Bay       1545   71     200/ 11     1012.0F
Lake Murray      1520   69     140/  2/  5 1010.2
ACE Basin NERRS  1545   73     350/  3       N/A
Fort Pulaski     1600   71 66  250/  7/ 12 1012.4
Sapelo Island    1600   71     260/ 11     1013.0

$$

ANZ835-935-AMZ111-154-330-350-352-354-370-450-454-472-241700-
...C-MAN and Buoy Observations...

STATION/POSITION TIME  TEMP    WIND        PRES    WAVE   SWELL
                       AIR SEA DIR/SP/G            HT/PER HT/PER/DIR
                 (UTC) (F)     (DEG/KT/KT) (MB)    (FT/S) (FT/S/D)
Buoy 41004       1610      69  230/  8/ 12 1012.4
Buoy 41008       1550   65 65  200/  8/ 10 1012.8F   5/ 9   5/ 90/ 9
Folly Beach CMAN 1600   66     200/ 12/ 14 1012.6
Capers Nearshore 1608   65 65  200/  8/ 12 1010.7F
Fripp Nearshore  1608   64 65  190/ 12/ 17 1011.8F


STATION/POSITION TIME  TEMP    WIND        PRES    WAVE   SWELL
                       AIR SEA DIR/SP/G            HT/PER HT/PER/DIR
                 (UTC) (F)     (DEG/KT/KT) (MB)    (FT/S) (FT/S/D)
5E St. Marys GA  1600      68                N/A     4/ 8   2/100/11
Frying Pan Buoy  1610   72 70  140/ 23/ 29 1012.9
Buoy 41025       1610   67 71  130/ 29/ 41 1018.6
Cape Lookout NC  1600          120/ 27/ 32 1016.0
Buoy 41002       1610   70 73  130/ 29/ 41 1016.6
Buoy 41010       1610   76 75  250/  6/ 10 1015.2
St Augustine FL  1600   74 68  230/ 15/ 19 1014.9F


$$




USA.gov is the U.S. government's official web portal to all federal, state and local government web resources and services.